Location: Oregon Star Party
(44.2935°N, 120.1332°W)
Time: 05:14:27
(UTC-07:00)

Amateur Radio Satellites - All Passes

Search period start: 22 October 2014 04:44
Search period end: 23 October 2014 04:44
Location: Oregon Star Party, 44.2935°N, 120.1332°W

Satellite Date Start Highest point End Downlink Frequencies (MHz)
Time Altitude Azimuth
OPAL 22 Oct 04:56:19 05:01:26 67° 70° (ENE) 05:06:31 ?
JAS-2 22 Oct 04:58:05 05:02:51 17° 86° (E) 05:07:38 435.800 - 435.900 CW/SSB, 435.910 FM
AO-27 22 Oct 05:00:52 05:04:07 17° 301° (WNW) 05:07:21 436.795 MHz FM
RS-15 22 Oct 05:19:07 05:28:37 31° 23° (NNE) 05:38:22 29.354 - 29.394 USB, Beacon 29.352 USB
AO-7 22 Oct 05:20:06 05:28:23 66° 105° (ESE) 05:36:39 29.400 - 29.500 MHz
JAS-1B 22 Oct 05:22:38 05:24:59 12° 307° (NW) 05:27:26 435.800 - 435.900 CW/SSB
Sapphire 22 Oct 05:36:46 05:42:07 61° 305° (NW) 05:47:31 437.095 MHz 1200 baud AX-25 AFSK
Hamsat 22 Oct 05:53:02 05:55:49 17° 92° (E) 05:58:35 145.90 MHz
Uosat F 22 Oct 05:57:10 06:02:12 66° 288° (WNW) 06:07:11 435.120 FM
Gurwin Techsat 1B 22 Oct 05:59:46 06:00:42 10° 306° (NW) 06:01:37 435.225 FM
PCSat 22 Oct 06:00:08 06:05:12 39° 310° (NW) 06:10:18 145.825 MHz
TMSAT-1 22 Oct 06:12:51 06:13:54 11° 306° (NW) 06:14:57 436.925 FM
STRAND 1 22 Oct 06:36:03 06:41:04 58° 71° (ENE) 06:46:07 ?
OPAL 22 Oct 06:37:31 06:40:45 17° 267° (W) 06:43:58 ?
JAS-2 22 Oct 06:41:06 06:48:50 81° 104° (ESE) 06:56:42 435.800 - 435.900 CW/SSB, 435.910 FM
AO-7 22 Oct 07:13:34 07:20:39 33° 305° (NW) 07:27:45 29.400 - 29.500 MHz
Sapphire 22 Oct 07:23:46 07:26:42 14° 327° (NNW) 07:29:38 437.095 MHz 1200 baud AX-25 AFSK
Hamsat 22 Oct 07:28:00 07:31:59 43° 288° (WNW) 07:35:58 145.90 MHz
RS-15 22 Oct 07:32:03 07:43:13 74° 52° (NE) 07:54:50 29.354 - 29.394 USB, Beacon 29.352 USB
SO-67 22 Oct 07:34:03 07:37:02 26° 96° (E) 07:39:59 435.3500 MHz FM
PCSat 22 Oct 07:49:08 07:50:13 11° 333° (NNW) 07:51:18 145.825 MHz
STRAND 1 22 Oct 08:17:04 08:20:37 19° 269° (W) 08:24:13 ?
JAS-2 22 Oct 08:27:09 08:33:05 26° 302° (WNW) 08:39:10 435.800 - 435.900 CW/SSB, 435.910 FM
Saudisat 1A 22 Oct 08:30:32 08:34:46 51° 120° (ESE) 08:39:03 436.775 MHz
SO-67 22 Oct 09:07:21 09:09:51 19° 292° (WNW) 09:12:21 435.3500 MHz FM
HO-68 22 Oct 09:09:41 09:15:51 30° 94° (E) 09:21:58 435.675 MHz FM
MaSat-1 22 Oct 09:26:33 09:28:50 23° 54° (NE) 09:30:57 437.345 MHz
Oscar 11 22 Oct 09:34:38 09:36:20 12° 89° (E) 09:38:01 145.825 FM, Beacon 2401.500 USB
RS-15 22 Oct 09:45:11 09:54:44 35° 254° (WSW) 10:04:40 29.354 - 29.394 USB, Beacon 29.352 USB
Saudisat 1A 22 Oct 10:11:02 10:14:36 24° 319° (NW) 10:18:12 436.775 MHz
ZACube-1 22 Oct 10:15:31 10:17:48 14° 90° (E) 10:20:04 437.345 MHz
UKube-1 22 Oct 10:24:39 10:28:51 44° 99° (E) 10:33:01 145.840 MHz, 145.915 MHz
HO-68 22 Oct 10:56:53 11:03:54 58° 293° (WNW) 11:10:53 435.675 MHz FM
FUNcube-1 22 Oct 10:59:35 11:03:40 41° 98° (E) 11:07:38 145.950 - 145.970 MHz USB
MaSat-1 22 Oct 11:03:22 11:04:13 11° 255° (WSW) 11:05:03 437.345 MHz
KITSAT 1 22 Oct 11:06:52 11:08:34 11° 96° (E) 11:10:17 435.175 FM
Oscar 11 22 Oct 11:08:40 11:12:57 66° 286° (WNW) 11:17:13 145.825 FM, Beacon 2401.500 USB
PCSat 22 Oct 11:21:37 11:23:02 11° 28° (NNE) 11:24:28 145.825 MHz
Oscar 10/S400 22 Oct 11:47:12 12:00:21 16° 149° (SSE) 12:10:56 145.825 - 145.975 CW/USB, Beacon 145.810 USB
ZACube-1 22 Oct 11:50:23 11:54:36 54° 287° (WNW) 11:58:42 437.345 MHz
Oscar 16 22 Oct 11:59:18 12:01:17 12° 56° (NE) 12:03:17 437.025 USB, Beacon 2401.1428
UKube-1 22 Oct 12:01:34 12:04:44 20° 296° (WNW) 12:07:53 145.840 MHz, 145.915 MHz
JAS-1B 22 Oct 12:28:43 12:32:52 21° 60° (ENE) 12:36:56 435.800 - 435.900 CW/SSB
FUNcube-1 22 Oct 12:36:40 12:39:45 20° 296° (WNW) 12:42:48 145.950 - 145.970 MHz USB
Sapphire 22 Oct 12:40:12 12:44:52 28° 45° (NE) 12:49:29 437.095 MHz 1200 baud AX-25 AFSK
HO-68 22 Oct 12:47:07 12:50:08 13° 314° (NW) 12:53:08 435.675 MHz FM
Oscar 19 22 Oct 12:50:08 12:54:39 32° 66° (ENE) 12:59:11 437.125 CW, 437.150 USB
KITSAT 1 22 Oct 12:54:24 13:02:17 61° 115° (ESE) 13:10:12 435.175 FM
AO-27 22 Oct 13:02:21 13:05:58 19° 60° (ENE) 13:09:36 436.795 MHz FM
PCSat 22 Oct 13:02:51 13:08:00 41° 51° (NE) 13:13:07 145.825 MHz
ISS 22 Oct 13:20:18 13:22:40 18° 134° (SE) 13:25:04 145.800 FM
SO-50 22 Oct 13:32:14 13:36:22 38° 117° (ESE) 13:40:39 436.795 FM
Oscar 16 22 Oct 13:34:39 13:39:49 81° 74° (ENE) 13:45:00 437.025 USB, Beacon 2401.1428
Uribyol 2 22 Oct 13:49:40 13:54:41 50° 70° (ENE) 13:59:44 436.500 FM
AO-Echo 22 Oct 13:50:54 13:55:40 57° 72° (ENE) 14:00:37 ?
ITAMSAT 1 22 Oct 13:55:00 14:00:02 52° 70° (ENE) 14:05:06 435.822 SSB
Gurwin Techsat 1B 22 Oct 14:00:08 14:04:47 32° 66° (ENE) 14:09:26 435.225 FM
TMSAT-1 22 Oct 14:13:08 14:17:43 31° 65° (ENE) 14:22:20 436.925 FM
JAS-1B 22 Oct 14:17:11 14:23:10 61° 258° (WSW) 14:28:48 435.800 - 435.900 CW/SSB
Sapphire 22 Oct 14:23:17 14:28:35 54° 245° (WSW) 14:33:51 437.095 MHz 1200 baud AX-25 AFSK
Oscar 19 22 Oct 14:29:16 14:33:56 34° 263° (W) 14:38:37 437.125 CW, 437.150 USB
AO-7 22 Oct 14:30:43 14:37:02 25° 51° (NE) 14:43:22 29.400 - 29.500 MHz
AO-27 22 Oct 14:39:50 14:44:59 63° 258° (WSW) 14:50:12 436.795 MHz FM
PCSat 22 Oct 14:46:30 14:51:18 33° 249° (WSW) 14:56:04 145.825 MHz
KITSAT 1 22 Oct 14:50:38 14:58:05 39° 317° (NW) 15:05:35 435.175 FM
ISS 22 Oct 14:55:45 14:59:04 67° 332° (NNW) 15:02:24 145.800 FM
UOSAT-12 22 Oct 15:09:48 15:13:59 35° 116° (ESE) 15:18:16 437.025 FM, 437.400 FM
SO-50 22 Oct 15:12:57 15:17:00 31° 316° (NW) 15:21:09 436.795 FM
Oscar 16 22 Oct 15:17:23 15:19:47 13° 272° (W) 15:22:11 437.025 USB, Beacon 2401.1428
Saudisat 1A 22 Oct 15:17:24 15:19:37 13° 32° (NNE) 15:21:49 436.775 MHz
Uribyol 2 22 Oct 15:30:23 15:34:25 22° 267° (W) 15:38:29 436.500 FM
AO-Echo 22 Oct 15:31:37 15:34:51 18° 270° (W) 15:38:10 ?
Uosat F 22 Oct 15:34:20 15:38:30 27° 64° (ENE) 15:42:41 435.120 FM
ITAMSAT 1 22 Oct 15:35:54 15:39:49 21° 268° (W) 15:43:46 435.822 SSB
Gurwin Techsat 1B 22 Oct 15:39:47 15:44:39 37° 263° (W) 15:49:34 435.225 FM
TMSAT-1 22 Oct 15:52:38 15:57:32 37° 263° (W) 16:02:28 436.925 FM
AO-7 22 Oct 16:20:36 16:28:54 86° 252° (WSW) 16:37:15 29.400 - 29.500 MHz
ISS 22 Oct 16:33:23 16:36:12 24° 351° (N) 16:39:01 145.800 FM
Hamsat 22 Oct 16:48:26 16:51:03 16° 64° (ENE) 16:53:38 145.90 MHz
UOSAT-12 22 Oct 16:49:51 16:54:08 35° 315° (NW) 16:58:29 437.025 FM, 437.400 FM
KITSAT 1 22 Oct 16:51:12 16:56:09 17° 345° (NNW) 17:01:07 435.175 FM
JAS-2 22 Oct 16:55:26 17:00:55 40° 65° (ENE) 17:07:05 435.800 - 435.900 CW/SSB, 435.910 FM
Saudisat 1A 22 Oct 16:55:37 17:00:02 66° 53° (NE) 17:04:25 436.775 MHz
OPAL 22 Oct 17:06:27 17:08:58 14° 92° (E) 17:11:29 ?
Uosat F 22 Oct 17:12:24 17:17:06 40° 262° (W) 17:21:51 435.120 FM
SO-67 22 Oct 18:09:38 18:11:11 13° 65° (ENE) 18:12:44 435.3500 MHz FM
ISS 22 Oct 18:10:43 18:13:37 26° 11° (NNE) 18:16:29 145.800 FM
AO-7 22 Oct 18:17:32 18:22:49 18° 271° (W) 18:28:09 29.400 - 29.500 MHz
Hamsat 22 Oct 18:22:30 18:26:37 50° 261° (W) 18:30:43 145.90 MHz
Saudisat 1A 22 Oct 18:36:33 18:39:05 15° 250° (WSW) 18:41:36 436.775 MHz
JAS-2 22 Oct 18:40:45 18:46:04 35° 267° (W) 18:52:02 435.800 - 435.900 CW/SSB, 435.910 FM
OPAL 22 Oct 18:43:26 18:48:25 74° 289° (WNW) 18:53:20 ?
STRAND 1 22 Oct 18:46:12 18:49:33 17° 91° (E) 18:52:52 ?
KITSAT 1 22 Oct 18:50:20 18:55:25 17° 16° (NNE) 19:00:29 435.175 FM
AO-40 22 Oct 19:34:50 01:06:30 38° 157° (SSE) 02:48:02 Beacon 2401.320
SO-67 22 Oct 19:40:31 19:43:47 42° 261° (W) 19:47:06 435.3500 MHz FM
HO-68 22 Oct 19:40:31 19:46:22 28° 57° (ENE) 19:52:14 435.675 MHz FM
ISS 22 Oct 19:47:19 19:50:40 83° 31° (NNE) 19:54:00 145.800 FM
SO-50 22 Oct 20:22:38 20:25:03 14° 30° (NNE) 20:27:30 436.795 FM
STRAND 1 22 Oct 20:24:04 20:29:10 63° 288° (WNW) 20:34:15 ?
OPAL 22 Oct 20:25:04 20:26:25 11° 307° (NW) 20:27:45 ?
Oscar 11 22 Oct 20:31:36 20:33:37 13° 61° (ENE) 20:35:38 145.825 FM, Beacon 2401.500 USB
KITSAT 1 22 Oct 20:45:48 20:53:23 41° 44° (NE) 21:00:55 435.175 FM
ZACube-1 22 Oct 21:13:25 21:16:20 17° 63° (ENE) 21:19:14 437.345 MHz
UKube-1 22 Oct 21:21:28 21:25:38 47° 71° (ENE) 21:29:50 145.840 MHz, 145.915 MHz
ISS 22 Oct 21:25:02 21:26:57 15° 227° (SW) 21:28:52 145.800 FM
HO-68 22 Oct 21:26:28 21:33:33 66° 257° (WSW) 21:40:43 435.675 MHz FM
FUNcube-1 22 Oct 21:57:00 22:01:20 43° 71° (ENE) 22:05:38 145.950 - 145.970 MHz USB
RS-15 22 Oct 21:58:36 22:08:17 38° 108° (ESE) 22:17:53 29.354 - 29.394 USB, Beacon 29.352 USB
UOSAT-12 22 Oct 21:58:59 22:00:52 12° 28° (NNE) 22:02:44 437.025 FM, 437.400 FM
SO-50 22 Oct 22:01:52 22:06:38 57° 51° (NE) 22:11:27 436.795 FM
Oscar 11 22 Oct 22:04:56 22:09:14 70° 258° (WSW) 22:13:35 145.825 FM, Beacon 2401.500 USB
KITSAT 1 22 Oct 22:41:14 22:49:04 57° 245° (WSW) 22:56:53 435.175 FM
ZACube-1 22 Oct 22:47:45 22:52:17 58° 260° (W) 22:56:48 437.345 MHz
UKube-1 22 Oct 22:59:11 23:02:05 17° 268° (W) 23:04:59 145.840 MHz, 145.915 MHz
HO-68 22 Oct 23:21:03 23:22:36 11° 276° (W) 23:24:10 435.675 MHz FM
FUNcube-1 22 Oct 23:34:25 23:37:52 21° 267° (W) 23:41:19 145.950 - 145.970 MHz USB
UOSAT-12 22 Oct 23:37:33 23:42:10 48° 49° (NE) 23:46:41 437.025 FM, 437.400 FM
SO-50 22 Oct 23:43:14 23:46:50 21° 248° (WSW) 23:50:27 436.795 FM
RS-15 23 Oct 00:09:02 00:19:57 67° 311° (NW) 00:30:54 29.354 - 29.394 USB, Beacon 29.352 USB
MaSat-1 23 Oct 00:39:37 00:43:48 80° 116° (ESE) 00:47:36 437.345 MHz
UOSAT-12 23 Oct 01:18:19 01:22:01 23° 248° (WSW) 01:25:40 437.025 FM, 437.400 FM
Oscar 16 23 Oct 01:45:22 01:49:34 25° 94° (E) 01:53:43 437.025 USB, Beacon 2401.1428
AO-Echo 23 Oct 01:57:19 02:00:54 18° 90° (E) 02:04:28 ?
JAS-1B 23 Oct 01:57:36 02:03:29 33° 97° (E) 02:10:16 435.800 - 435.900 CW/SSB
Uribyol 2 23 Oct 02:02:11 02:05:12 15° 90° (E) 02:08:11 436.500 FM
ITAMSAT 1 23 Oct 02:07:31 02:10:44 16° 90° (E) 02:13:56 435.822 SSB
Gurwin Techsat 1B 23 Oct 02:17:57 02:18:18 10° 86° (E) 02:18:39 435.225 FM
MaSat-1 23 Oct 02:18:15 02:19:52 12° 312° (NW) 02:21:26 437.345 MHz
RS-15 23 Oct 02:25:38 02:34:49 30° 341° (NNW) 02:44:08 29.354 - 29.394 USB, Beacon 29.352 USB
Oscar 19 23 Oct 02:38:34 02:43:42 75° 103° (ESE) 02:48:48 437.125 CW, 437.150 USB
AO-27 23 Oct 02:51:21 02:56:18 41° 98° (E) 03:01:13 436.795 MHz FM
Oscar 16 23 Oct 03:24:15 03:29:05 43° 291° (WNW) 03:33:53 437.025 USB, Beacon 2401.1428
Sapphire 23 Oct 03:25:55 03:28:55 15° 104° (ESE) 03:31:57 437.095 MHz 1200 baud AX-25 AFSK
AO-Echo 23 Oct 03:34:49 03:40:04 64° 287° (WNW) 03:45:19 ?
Uribyol 2 23 Oct 03:39:59 03:45:12 71° 287° (WNW) 03:50:22 436.500 FM
ITAMSAT 1 23 Oct 03:45:31 03:50:44 68° 288° (WNW) 03:55:53 435.822 SSB
PCSat 23 Oct 03:47:02 03:51:25 26° 108° (ESE) 03:55:48 145.825 MHz
JAS-1B 23 Oct 03:48:06 03:54:14 49° 291° (WNW) 04:01:27 435.800 - 435.900 CW/SSB
Gurwin Techsat 1B 23 Oct 03:53:45 03:59:06 80° 103° (ESE) 04:04:25 435.225 FM
TMSAT-1 23 Oct 04:06:16 04:11:37 78° 103° (ESE) 04:16:54 436.925 FM
Oscar 19 23 Oct 04:19:22 04:22:26 16° 301° (WNW) 04:25:30 437.125 CW, 437.150 USB
AO-7 23 Oct 04:20:58 04:27:59 29° 94° (E) 04:34:57 29.400 - 29.500 MHz
OPAL 23 Oct 04:21:50 04:26:23 33° 64° (ENE) 04:30:54 ?
AO-27 23 Oct 04:31:14 04:35:38 28° 296° (WNW) 04:40:01 436.795 MHz FM
